Tracking 23752 objects as of 24-Oct-2021
HD Live streaming from Space Station
objects crossing your sky now

DELTA 2 DEB

Track DELTA 2 DEB now!
10-day predictions


NORAD ID: 38677
Int'l Code: 2008-012D
Perigee: 218.6 km
Apogee: 12,073.2 km
Inclination: 40.0 °
Period: 232.3 minutes
Semi major axis: 12516 km
RCS: 0.005 m2 (small)
Launch date: March 15, 2008
Source: United States (US)
Launch site: AIR FORCE EASTERN TEST RANGE (AFETR)

Note: This is SATELLITE DEBRIS
aabbcc
Your satellite tracking list
Your tracking list is empty




NASA's NSSDC Master Catalog

Two Line Element Set (TLE):
1 38677U 08012D   21296.54475553  .00019694  00000-0  43953-3 0  9996
2 38677  40.0163 117.5370 4735461  69.4529 349.4903  6.19950559 76943
Source of the keplerian elements: AFSPC